Location: Unspecified
(0.0000°N, 0.0000°E)
Time: 19:24:18
(UTC+00:00)

COSMOS 2401 - Pass Details

Date: 07 March 2021
Orbit: 1467 x 1500 km, 82.5° (Epoch: 12 April)

Event Time Altitude Azimuth Distance (km) Brightness Sun altitude
Rises 19:53:06 0° 200° (SSW) 4,579 10.3 -25.4°
Reaches altitude 10° 19:56:10 10° 206° (SSW) 3,600 9.8 -26.2°
Maximum altitude 20:04:04 41° 273° (W) 2,023 8.5 -28.2°
Drops below altitude 10° 20:12:02 10° 340° (NNW) 3,608 9.6 -30.2°
Sets 20:15:09 0° 348° (NNW) 4,590 10.1 -30.9°
